Temperature
31 31 31 31 32 32 32 31 31 30 29 29 29 29 28 28 27 26 26 25 24 23 22 22 21 21 20 20 19 19 19 18 18 18 17 17 17 16 16 16 16 16 16 15
30 31 31 31 32 32 32 31 31 30 29 30 29 28 27 27 27 26 25 25 23 23 22 21 21 20 20 19 19 19 18 18 18 17 17 17 17 16 16 16 15 15 15 15
29 31 31 30 31 31 31 32 31 29 29 29 28 27 27 26 26 25 24 24 23 22 21 21 20 20 19 19 19 18 18 18 17 17 17 17 16 16 16 15 15 15 15 15
29 29 28 30 32 32 31 31 31 30 29 28 28 27 25 25 24 24 23 22 22 21 21 20 20 19 19 18 18 18 17 17 17 17 16 16 16 16 15 15 15 15 15 15
28 28 29 30 31 31 30 29 29 29 29 28 27 26 25 24 23 23 22 22 21 21 20 20 20 19 19 18 18 17 17 17 16 16 16 16 16 15 15 15 15 15 15 14
27 27 27 28 30 30 29 27 27 27 27 27 27 26 24 23 23 22 21 20 20 20 20 20 19 19 18 18 17 17 17 16 16 16 16 15 15 15 15 15 15 14 14 14
27 27 27 28 29 29 27 26 26 26 26 25 25 24 23 22 21 21 20 19 19 19 19 19 18 18 18 17 17 17 16 16 16 16 16 15 15 15 14 14 14 14 14 14
26 26 25 27 28 26 25 25 25 25 24 24 23 23 22 21 20 20 19 19 18 18 18 18 18 18 17 17 16 16 16 16 16 15 15 15 15 14 14 14 14 14 13 13
26 25 25 25 25 24 24 24 24 24 23 23 22 22 21 20 19 19 19 18 18 18 17 17 17 17 16 16 16 15 15 15 15 15 15 14 14 14 14 14 13 13 13 13
25 25 25 25 24 23 23 23 23 23 23 22 22 21 20 19 19 18 18 17 17 17 17 17 16 16 16 15 15 15 15 15 15 14 14 14 14 14 14 14 13 13 13 13
24 25 25 24 23 23 23 22 22 22 22 22 21 20 19 19 18 18 17 17 16 16 16 16 16 16 15 15 15 14 14 14 14 14 14 14 14 13 13 13 13 13 13 13
23 23 24 23 23 22 22 22 22 21 21 21 20 19 19 18 18 17 17 16 16 16 16 15 15 15 15 14 14 14 14 14 14 14 14 14 13 13 13 13 13 13 13 13
22 22 22 22 22 22 21 21 21 21 20 20 19 19 18 18 17 17 16 16 15 15 15 15 15 14 14 14 14 13 13 13 13 13 13 13 13 13 13 13 13 12 12 12
21 21 21 21 21 21 21 20 20 20 19 19 18 18 17 17 16 16 16 15 15 15 15 14 14 14 14 13 13 13 13 13 13 13 13 13 13 13 13 13 12 12 12 12
20 21 20 20 20 20 20 20 19 19 19 18 18 17 17 16 16 15 15 15 15 14 14 14 13 13 13 13 13 13 13 13 13 13 13 13 13 13 12 12 12 12 12 12
20 20 20 20 20 19 19 19 19 18 18 18 17 17 16 16 15 15 15 14 14 14 13 13 13 13 13 12 12 12 12 12 12 12 13 13 13 13 12 12 12 12 12 11
19 19 19 19 19 19 19 18 18 17 17 17 16 16 16 15 15 14 14 14 14 13 13 13 13 12 12 12 12 12 12 12 12 12 13 13 12 12 12 12 11 11 11 11
19 19 19 18 18 18 18 17 17 17 16 16 16 15 15 15 14 14 14 13 13 13 13 12 12 12 12 12 12 12 12 12 12 12 12 12 12 12 12 11 11 11 11 11
19 19 18 18 18 18 17 17 16 16 16 15 15 15 14 14 14 13 13 13 13 13 12 12 12 12 12 12 12 12 12 12 12 12 12 12 12 12 12 11 11 11 11 10
18 18 18 17 17 17 16 16 16 15 15 15 14 14 14 14 13 13 13 13 13 12 12 12 12 12 12 12 12 12 12 12 12 12 12 12 11 11 11 11 11 11 10 10
17 17 17 17 16 16 16 15 15 15 15 14 14 14 13 13 13 13 13 13 12 12 12 12 12 12 12 12 12 12 12 12 12 12 12 11 11 11 11 11 11 10 10 10
16 16 16 16 16 15 15 15 15 14 14 14 14 13 13 13 13 13 13 12 12 12 12 12 12 12 12 12 12 12 12 12 12 12 11 11 11 11 11 10 10 10 10 9
15 15 15 15 15 14 14 14 14 14 14 13 13 13 13 13 13 13 13 12 12 12 12 12 12 11 11 11 12 12 12 12 11 11 11 11 11 11 10 10 10 10 9 9
14 14 14 14 14 14 14 14 13 13 13 13 13 13 13 13 13 13 12 12 12 12 11 12 12 11 11 11 11 11 11 11 11 11 11 11 10 10 10 10 9 9 9 9
13 14 14 14 13 13 13 13 13 13 13 13 13 13 13 13 12 12 12 12 12 11 11 11 11 11 11 11 11 11 11 11 11 11 10 10 10 10 9 9 9 9 8 8
13 13 13 13 13 13 13 13 13 13 13 13 13 13 13 13 12 12 12 12 11 11 11 11 11 11 11 11 11 11 10 10 10 10 10 10 9 9 9 9 8 8 8 7
13 13 13 13 13 13 13 13 13 13 13 13 12 12 12 12 12 12 11 11 11 11 11 11 11 11 11 11 10 10 10 10 10 10 9 9 9 9 8 8 7 7 7 7
Wind_Speed
15 13 10 12 14 13 11 10 10 5 2 3 3 3 6 7 6 5 5 5 6 6 6 6 6 6 6 5 4 4 5 5 5 4 3 3 2 2 1 1 1 1 0 1
15 15 13 15 13 11 11 8 7 5 1 3 4 4 5 5 6 6 5 4 5 6 6 6 6 6 6 5 5 5 4 4 4 3 3 2 2 2 2 1 0 0 0 1
14 14 14 14 10 9 8 7 6 5 2 3 3 4 5 5 5 5 4 4 5 5 6 6 6 6 5 5 4 4 4 3 3 3 3 2 2 1 1 2 1 0 1 2
12 12 14 8 7 6 6 5 4 2 1 2 3 6 7 6 5 4 4 5 4 4 4 5 6 6 5 5 5 4 4 3 2 2 2 2 1 1 0 0 0 1 1 1
10 12 11 7 5 5 4 4 3 1 1 2 4 4 6 7 6 4 4 5 4 3 3 4 5 5 5 5 5 4 3 2 1 1 1 1 1 1 1 1 0 1 1 1
10 12 11 5 3 3 4 3 3 4 4 3 2 1 4 5 6 7 7 5 4 3 4 4 4 5 5 5 4 3 2 2 1 1 1 1 1 1 0 0 1 1 1 1
12 13 6 4 5 4 5 1 3 4 5 4 4 5 5 6 6 6 6 6 5 4 4 5 4 4 4 3 3 3 3 2 1 1 1 1 1 1 1 1 1 1 1 1
11 12 5 4 2 2 3 5 5 5 5 5 5 6 7 6 5 5 5 5 4 4 5 5 5 4 3 3 3 2 2 2 1 1 1 1 1 1 1 1 1 1 2 1
3 2 3 5 6 4 4 5 4 4 5 4 4 5 6 5 5 6 5 5 4 3 5 4 4 4 3 3 3 2 2 1 1 2 1 1 1 1 1 2 2 2 2 1
1 2 3 5 5 4 5 5 5 4 3 3 4 4 4 5 6 5 4 5 4 4 5 4 3 3 3 3 2 1 1 1 1 2 2 1 0 0 0 0 1 1 1 1
2 2 2 3 4 4 5 4 4 4 4 3 3 4 4 4 4 4 4 5 4 3 3 3 3 3 2 2 2 1 1 1 1 1 1 2 1 1 1 2 1 0 1 2
0 1 0 1 2 3 2 2 2 3 3 3 4 4 4 3 4 4 4 4 3 2 2 3 3 3 3 2 2 1 0 1 1 1 1 1 2 2 4 1 2 3 1 1
4 3 2 3 2 2 2 2 2 2 2 3 3 3 3 3 3 3 3 3 2 1 2 2 2 3 2 2 2 1 1 1 1 0 1 1 1 1 1 1 1 0 1 2
3 3 1 1 1 1 2 1 1 2 2 2 2 3 3 3 3 4 3 3 2 2 2 2 2 2 2 1 1 1 1 2 2 1 1 2 1 1 1 1 1 1 2 4
2 1 1 1 1 1 1 1 1 1 1 2 2 3 3 3 3 3 3 3 3 2 2 2 2 1 1 1 0 1 2 1 2 2 2 2 2 2 2 2 2 2 1 2
4 2 2 2 2 2 2 1 1 1 1 2 2 2 3 3 3 3 2 2 2 2 2 2 1 1 0 0 1 2 1 2 3 3 3 3 2 2 2 2 1 1 1 1
4 4 3 3 3 3 2 1 1 1 0 1 2 2 3 3 3 2 1 1 2 2 1 1 1 0 1 2 3 3 2 2 4 4 3 2 2 2 2 2 2 2 2 1
5 5 4 4 4 3 2 2 1 0 0 1 2 2 3 3 2 1 1 1 1 1 0 1 1 1 1 2 3 3 3 2 3 3 2 2 2 2 3 3 3 3 2 1
4 3 3 3 3 3 2 1 1 1 1 1 2 2 2 2 2 1 1 1 1 1 1 1 1 2 2 1 2 3 4 4 3 3 2 2 3 3 3 3 3 2 2 2
2 2 2 2 2 2 2 1 1 1 2 2 2 2 2 2 1 1 1 2 2 1 0 1 2 3 2 1 3 5 4 4 3 3 2 3 3 3 3 3 3 3 3 3
2 2 2 2 2 2 2 2 2 2 2 2 3 3 3 2 2 2 3 3 1 1 1 2 3 2 2 2 5 6 4 3 3 3 3 3 3 3 3 3 3 3 3 3
2 2 2 2 2 2 2 2 2 2 3 3 3 3 3 3 3 3 3 2 2 2 2 3 2 1 2 4 5 5 4 4 3 4 3 3 3 3 3 3 3 3 3 3
1 1 2 2 2 2 2 2 2 2 3 4 3 3 4 3 3 3 3 2 3 3 4 3 1 1 2 5 5 4 4 5 5 4 3 2 3 3 3 3 3 3 3 2
1 1 2 2 2 2 2 2 3 3 4 4 4 4 4 3 3 3 2 3 3 4 4 3 4 4 5 5 5 4 4 4 5 4 4 3 2 2 2 3 3 3 2 3
1 1 2 2 2 2 3 3 3 4 4 4 4 3 3 2 2 2 1 1 3 3 3 3 6 6 5 6 5 4 3 3 4 4 3 3 3 2 2 2 2 3 3 2
1 1 1 2 2 1 2 3 2 2 1 1 1 1 2 2 1 1 1 2 2 3 3 2 3 4 5 5 4 4 3 3 3 3 3 3 3 2 2 2 3 2 2 2
2 2 2 2 2 2 2 1 1 0 0 0 1 1 1 0 0 1 2 2 2 2 3 3 3 4 4 3 3 3 3 3 3 3 2 2 3 2 2 2 2 2 2 2
Wind_Direction
272 270 259 258 253 249 251 265 275 268 199 158 124 96 108 118 125 118 113 118 115 117 117 118 121 126 132 136 133 134 143 149 147 150 154 155 161 159 152 159 159 126 14 336
270 268 261 258 256 255 253 254 254 257 228 88 68 80 98 106 118 117 120 121 116 111 119 134 137 135 134 137 136 134 135 137 137 145 145 151 162 169 160 167 156 149 312 32
269 266 266 258 260 263 267 260 254 251 206 123 86 74 89 97 103 113 112 98 110 124 138 149 141 135 141 144 141 136 133 138 150 157 167 173 191 157 170 186 190 156 88 82
264 267 257 258 271 258 265 273 288 284 113 124 106 100 90 80 82 99 114 108 105 117 127 139 146 151 150 150 141 134 136 144 151 165 170 170 158 143 163 137 153 148 127 104
255 259 255 251 263 274 268 287 332 325 173 137 116 108 83 75 73 79 79 99 103 116 121 133 145 145 146 145 140 137 139 142 156 156 157 175 177 180 180 164 119 137 115 95
250 259 264 257 289 301 264 229 19 21 35 51 118 177 86 75 74 68 62 61 72 82 106 116 119 132 137 138 133 135 134 122 122 146 166 177 184 177 142 177 154 153 111 89
248 255 257 303 314 287 255 221 43 55 51 43 50 57 82 75 73 69 74 70 68 74 81 86 88 97 119 128 131 129 121 120 114 108 150 161 145 139 168 186 149 139 133 146
242 250 247 2 345 0 60 56 52 57 56 49 64 77 83 78 75 71 71 79 73 72 82 84 87 90 94 90 95 109 120 128 140 138 217 153 133 148 160 171 188 195 202 208
240 230 84 58 68 65 74 69 55 57 71 69 81 86 90 91 89 75 71 74 69 80 93 89 87 91 88 75 82 97 113 132 162 156 131 112 162 173 175 194 223 226 222 225
191 148 102 86 85 78 73 64 59 67 75 82 82 87 88 92 91 83 71 64 67 92 94 86 77 79 80 84 87 121 144 149 162 146 141 123 122 180 227 256 277 295 299 316
211 174 141 88 64 59 69 62 54 63 61 64 79 92 84 94 95 86 83 73 66 75 99 100 89 83 80 81 90 92 163 188 185 155 140 121 95 41 25 24 61 7 336 351
278 63 14 90 67 74 83 80 58 51 54 55 79 87 90 95 96 96 90 83 82 68 88 108 104 89 74 71 81 81 314 239 208 153 144 159 135 77 49 78 106 118 152 195
16 4 40 57 54 76 92 83 63 55 64 68 80 82 80 82 78 89 91 89 93 97 84 95 109 100 94 91 86 72 349 307 283 245 201 234 193 162 160 30 35 157 239 232
8 25 48 37 55 60 72 77 82 71 72 73 87 93 87 83 87 90 89 87 81 82 86 89 99 96 85 73 65 42 327 322 304 265 255 263 243 229 226 226 250 280 261 239
308 271 241 247 203 167 165 147 155 140 120 115 108 105 100 101 105 99 96 95 91 84 74 75 83 80 76 75 338 296 296 280 304 306 277 264 257 250 246 234 241 240 244 261
285 265 229 231 215 203 206 206 208 221 180 154 134 117 111 109 107 105 97 96 99 77 61 49 45 28 82 256 262 255 254 260 267 273 267 262 266 275 278 275 283 301 308 331
260 244 234 231 224 215 213 206 212 223 182 166 136 121 113 106 104 108 125 106 83 81 93 128 126 208 251 259 263 267 258 237 251 272 284 307 321 327 322 313 314 305 301 270
245 239 235 224 223 212 189 179 193 172 143 117 115 131 140 137 141 130 111 99 95 126 217 176 146 255 269 272 284 292 292 266 259 274 283 299 305 295 288 288 291 292 280 277
233 220 210 207 209 201 188 181 175 165 140 135 158 154 147 150 158 175 176 163 222 244 199 145 166 256 271 272 295 276 275 271 269 282 292 286 271 275 282 280 283 295 302 290
216 210 202 213 220 205 182 165 179 184 179 184 188 186 180 180 180 197 221 224 232 267 252 216 245 263 257 265 280 272 272 277 278 281 274 267 277 290 293 295 301 300 295 293
214 206 212 216 213 207 196 198 217 211 199 199 200 205 206 207 210 224 235 241 164 127 242 232 240 268 283 293 273 277 278 283 286 283 274 270 284 293 294 298 302 302 306 308
233 223 219 215 216 208 203 216 238 220 203 210 214 209 212 219 224 230 229 224 193 177 241 248 239 230 287 279 269 277 283 287 286 285 285 278 282 288 292 298 298 302 306 308
260 235 226 227 224 209 212 226 235 216 218 215 208 209 221 228 233 236 240 221 212 212 244 253 185 169 279 276 278 282 286 286 284 285 284 280 284 290 293 298 303 308 313 319
265 236 221 218 204 201 217 225 218 212 219 219 216 212 222 228 233 241 241 179 194 228 250 189 182 218 258 272 278 277 281 290 296 296 295 299 301 301 303 302 301 311 317 318
301 245 219 218 214 211 203 213 214 208 216 217 216 201 218 228 247 259 240 201 172 214 263 220 205 220 251 275 277 282 292 304 310 312 318 315 309 313 329 327 326 325 323 322
266 241 209 220 233 232 219 217 221 222 227 219 228 221 225 203 175 175 219 236 236 230 254 259 235 239 261 272 283 292 294 291 290 287 301 309 311 314 316 319 323 323 328 334
208 201 206 223 223 228 221 198 182 247 295 290 288 299 303 308 203 211 231 240 249 253 257 258 250 250 260 277 292 299 304 312 313 314 313 313 315 312 312 320 323 333 339 344
Height
1449 1445 1445 1449 1447 1444 1448 1450 1458 1459 1460 1459 1460 1461 1463 1466 1469 1473 1476 1478 1480 1483 1485 1488 1490 1492 1494 1497 1499 1500 1501 1502 1503 1504 1505 1505 1506 1506 1506 1506 1507 1506 1506 1506
1453 1445 1443 1446 1441 1441 1443 1446 1450 1454 1460 1455 1459 1462 1465 1467 1469 1472 1476 1479 1481 1482 1485 1488 1490 1491 1494 1496 1498 1499 1500 1501 1502 1503 1503 1504 1505 1505 1505 1505 1505 1505 1505 1504
1460 1446 1447 1452 1443 1443 1443 1443 1447 1456 1457 1456 1460 1463 1466 1468 1470 1473 1476 1479 1481 1482 1485 1487 1489 1491 1492 1494 1496 1497 1498 1499 1500 1501 1502 1503 1503 1503 1503 1503 1503 1503 1503 1502
1458 1457 1471 1451 1437 1438 1444 1445 1444 1448 1452 1456 1460 1465 1468 1470 1473 1474 1476 1478 1480 1482 1485 1487 1489 1490 1492 1493 1494 1495 1497 1498 1498 1499 1500 1500 1501 1501 1501 1501 1501 1501 1501 1500
1459 1463 1457 1447 1440 1440 1447 1453 1450 1451 1454 1457 1461 1465 1468 1471 1473 1475 1477 1477 1480 1481 1483 1486 1488 1489 1491 1492 1493 1494 1495 1496 1497 1498 1498 1498 1499 1499 1499 1499 1499 1499 1499 1498
1458 1466 1467 1453 1442 1442 1447 1459 1457 1456 1458 1459 1461 1466 1473 1473 1474 1476 1478 1478 1479 1482 1483 1485 1487 1488 1490 1491 1492 1493 1494 1494 1495 1496 1496 1496 1496 1496 1497 1497 1497 1497 1497 1496
1458 1461 1457 1449 1444 1445 1461 1465 1459 1459 1461 1463 1465 1469 1474 1474 1475 1477 1478 1479 1480 1482 1482 1484 1486 1488 1489 1490 1491 1491 1492 1493 1493 1494 1494 1494 1494 1494 1495 1495 1495 1495 1494 1494
1456 1463 1465 1451 1449 1456 1462 1460 1461 1462 1464 1467 1469 1471 1474 1476 1478 1478 1478 1479 1481 1482 1483 1484 1485 1486 1487 1489 1489 1490 1491 1491 1492 1492 1492 1493 1492 1492 1493 1493 1493 1493 1492 1492
1452 1458 1456 1455 1458 1461 1462 1463 1464 1465 1467 1469 1470 1472 1475 1477 1478 1479 1480 1480 1481 1482 1483 1484 1485 1486 1486 1487 1488 1489 1489 1490 1490 1491 1491 1491 1491 1491 1491 1491 1491 1492 1492 1491
1451 1452 1454 1457 1460 1462 1464 1465 1466 1467 1469 1470 1472 1475 1476 1477 1478 1480 1480 1481 1481 1482 1483 1484 1485 1485 1486 1486 1487 1488 1488 1488 1489 1489 1489 1489 1489 1489 1490 1489 1489 1490 1490 1490
1453 1454 1456 1459 1461 1463 1465 1466 1467 1469 1471 1472 1474 1475 1477 1479 1480 1481 1482 1482 1482 1483 1483 1484 1484 1484 1485 1485 1486 1486 1487 1487 1487 1487 1488 1488 1488 1488 1488 1488 1488 1488 1488 1488
1455 1456 1458 1461 1462 1464 1466 1467 1469 1470 1472 1473 1475 1476 1478 1479 1480 1481 1482 1482 1482 1483 1484 1483 1483 1483 1484 1484 1485 1485 1485 1486 1486 1486 1486 1486 1486 1486 1487 1487 1487 1486 1486 1485
1458 1459 1460 1462 1464 1465 1467 1468 1470 1471 1473 1474 1476 1477 1478 1479 1480 1480 1481 1482 1482 1483 1483 1483 1483 1483 1484 1484 1484 1484 1485 1485 1485 1485 1485 1485 1485 1485 1484 1485 1485 1484 1483 1483
1461 1461 1462 1464 1465 1467 1468 1469 1471 1472 1473 1475 1476 1477 1478 1479 1480 1480 1481 1482 1482 1483 1482 1482 1482 1482 1483 1483 1483 1483 1484 1484 1484 1483 1484 1484 1483 1483 1483 1483 1482 1481 1481 1481
1461 1462 1463 1465 1466 1467 1469 1470 1471 1473 1474 1475 1476 1477 1478 1479 1480 1480 1481 1481 1482 1482 1482 1482 1482 1482 1482 1482 1482 1482 1483 1483 1483 1483 1482 1482 1482 1482 1482 1481 1481 1480 1479 1478
1461 1462 1463 1465 1466 1467 1469 1470 1471 1472 1474 1474 1475 1476 1477 1478 1479 1480 1481 1481 1481 1481 1481 1481 1480 1480 1480 1481 1481 1481 1481 1481 1481 1481 1481 1481 1481 1481 1481 1480 1479 1479 1478 1477
1461 1462 1463 1465 1466 1467 1469 1470 1471 1472 1473 1474 1475 1476 1477 1478 1479 1479 1480 1480 1480 1480 1480 1480 1479 1479 1479 1479 1479 1479 1479 1479 1479 1479 1479 1479 1479 1479 1479 1478 1478 1477 1476 1475
1460 1461 1463 1464 1466 1467 1468 1469 1471 1472 1473 1473 1474 1475 1476 1476 1477 1478 1479 1479 1479 1479 1479 1478 1478 1478 1478 1478 1478 1478 1478 1478 1478 1477 1477 1477 1477 1477 1476 1476 1476 1475 1474 1473
1459 1460 1462 1463 1465 1466 1467 1469 1470 1471 1472 1473 1473 1474 1475 1475 1476 1477 1477 1477 1477 1477 1477 1477 1477 1477 1477 1476 1476 1476 1476 1476 1476 1475 1475 1475 1475 1474 1474 1474 1473 1472 1471 1470
1458 1460 1461 1463 1464 1465 1466 1468 1469 1469 1470 1471 1472 1473 1474 1474 1475 1475 1475 1476 1476 1475 1475 1475 1475 1475 1475 1474 1474 1473 1474 1474 1474 1473 1473 1473 1473 1472 1471 1471 1470 1470 1469 1468
1458 1459 1461 1462 1463 1465 1466 1467 1468 1468 1469 1470 1471 1471 1472 1472 1473 1473 1473 1473 1474 1473 1473 1473 1473 1473 1473 1472 1472 1472 1472 1472 1472 1471 1471 1470 1470 1469 1469 1468 1467 1467 1466 1465
1457 1458 1460 1461 1462 1463 1464 1465 1466 1466 1467 1468 1469 1470 1470 1470 1471 1471 1471 1471 1471 1471 1471 1471 1471 1471 1471 1470 1470 1470 1470 1470 1469 1469 1468 1467 1467 1466 1466 1465 1464 1463 1462 1461
1456 1457 1459 1460 1461 1462 1462 1463 1464 1464 1465 1466 1467 1467 1468 1468 1468 1469 1469 1469 1469 1469 1469 1469 1469 1468 1468 1468 1468 1468 1467 1467 1466 1466 1465 1464 1463 1463 1462 1462 1461 1460 1459 1458
1456 1457 1457 1458 1459 1460 1461 1461 1462 1462 1463 1464 1465 1465 1466 1466 1466 1467 1467 1466 1466 1466 1466 1466 1466 1466 1465 1465 1465 1465 1464 1464 1464 1463 1462 1462 1461 1459 1458 1458 1457 1456 1455 1454
1455 1456 1457 1457 1458 1459 1459 1460 1460 1461 1462 1462 1462 1462 1463 1464 1464 1464 1464 1464 1464 1464 1464 1463 1463 1463 1462 1462 1462 1462 1461 1461 1460 1460 1459 1458 1457 1456 1455 1454 1453 1452 1451 1450
1454 1455 1455 1456 1457 1458 1458 1458 1458 1459 1460 1460 1460 1460 1461 1461 1461 1461 1461 1461 1462 1461 1461 1461 1461 1460 1460 1460 1460 1459 1458 1458 1457 1456 1456 1455 1454 1453 1452 1451 1450 1449 1448 1446
1454 1454 1454 1455 1456 1456 1456 1457 1457 1457 1458 1458 1459 1459 1459 1460 1459 1459 1460 1459 1459 1459 1459 1459 1458 1458 1458 1457 1457 1456 1456 1455 1454 1453 1452 1451 1450 1449 1448 1447 1446 1445 1444 1443